Farmingdale, NY

6:10 PM EDT on April 22, 2018 (GMT -0400)
Republic

Weather History for KFRG - October, 2013

Change the Weather History Date:

Sunday, October 6, 2013

  Actual Average Record
Temperature  
Mean Temperature 64 °F -  
Max Temperature 66 °F 65 °F 86 °F (1997)
Min Temperature 62 °F 48 °F 37 °F (1998)
Degree Days  
Heating Degree Days 1    
Growing Degree Days 14 (Base 50)    
Moisture  
Dew Point 64 °F    
Average Humidity 99    
Maximum Humidity 100    
Minimum Humidity 94    
Precipitation  
Precipitation 0.00 in - - ()
Sea Level Pressure  
Sea Level Pressure 30.09 in    
Wind  
Wind Speed 7 mph (SE)    
Max Wind Speed 12 mph    
Max Gust Speed -    
Visibility 2 miles    
Events      
Averages and records for this station are not official NWS values.
T = Trace of Precipitation, MM = Missing Value Source: NWS Daily Summary

Daily Weather History Graph

Daily Weather History Graph

Search for Another Location

Airport or City:

Astronomy

Oct. 06, 2013 Rise Set
Actual Time 6:55 AM EDT 6:27 PM EDT
Civil Twilight 6:28 AM EDT 6:54 PM EDT
Nautical Twilight 5:56 AM EDT 7:26 PM EDT
Astronomical Twilight 5:24 AM EDT 7:57 PM EDT
Moon 8:37 AM EDT (10/6) 7:23 PM EDT (10/6)
Length of Visible Light 12h 26m
Length of Day
11h 31m
Waxing Crescent, 3% of the Moon is Illuminated
Oct 6
Waxing Crescent
Oct 11
First Quarter
Oct 18
Full
Oct 26
Last Quarter
Nov 3
New

Hourly Weather History & Observations

Time (EDT) Temp. Dew Point Humidity Pressure Visibility Wind Dir Wind Speed Gust Speed Precip Events Conditions
12:46 AM 64.4 °F 62.6 °F 94% 30.09 in 5.0 mi SSE 8.1 mph - N/A   Overcast
12:53 AM 64.0 °F 63.0 °F 96% 30.09 in 5.0 mi SSE 5.8 mph - N/A   Overcast
1:53 AM 64.0 °F 63.0 °F 96% 30.10 in 5.0 mi SSE 6.9 mph - N/A   Overcast
2:09 AM 64.4 °F 62.6 °F 94% 30.09 in 2.5 mi SE 4.6 mph - N/A   Overcast
2:23 AM 64.4 °F 62.6 °F 94% 30.09 in 3.0 mi SSE 4.6 mph - N/A   Overcast
2:35 AM 62.6 °F 62.6 °F 100% 30.09 in 2.5 mi SSE 6.9 mph - N/A   Overcast
2:53 AM 63.0 °F 63.0 °F 100% 30.09 in 2.0 mi South 4.6 mph - N/A   Overcast
3:04 AM 62.6 °F 62.6 °F 100% 30.08 in 3.0 mi SE 5.8 mph - N/A   Overcast
3:13 AM 62.6 °F 62.6 °F 100% 30.08 in 2.0 mi Calm Calm - N/A   Overcast
3:21 AM 62.6 °F 62.6 °F 100% 30.08 in 1.5 mi ESE 4.6 mph - N/A   Overcast
3:45 AM 62.6 °F 62.6 °F 100% 30.08 in 3.0 mi SSE 4.6 mph - N/A   Overcast
3:53 AM 63.0 °F 63.0 °F 100% 30.07 in 2.5 mi ESE 5.8 mph - N/A   Overcast
4:26 AM 62.6 °F 62.6 °F 100% 30.08 in 3.0 mi ESE 4.6 mph - N/A   Overcast
4:33 AM 62.6 °F 62.6 °F 100% 30.07 in 2.5 mi ESE 6.9 mph - N/A   Overcast
4:53 AM 63.0 °F 63.0 °F 100% 30.07 in 2.5 mi ESE 8.1 mph - N/A   Overcast
5:00 AM 62.6 °F 62.6 °F 100% 30.08 in 4.0 mi ESE 5.8 mph - N/A   Overcast
5:53 AM 63.0 °F 63.0 °F 100% 30.08 in 4.0 mi SE 4.6 mph - N/A   Overcast
6:17 AM 62.6 °F 62.6 °F 100% 30.09 in 7.0 mi SE 6.9 mph - N/A   Overcast
6:53 AM 64.0 °F 63.0 °F 96% 30.09 in 4.0 mi SE 6.9 mph - N/A   Overcast
7:01 AM 64.4 °F 62.6 °F 94% 30.09 in 1.5 mi SE 6.9 mph - N/A   Overcast
7:53 AM 64.0 °F 63.0 °F 96% 30.10 in 1.5 mi SE 9.2 mph - N/A   Overcast
8:53 AM 64.0 °F 64.0 °F 100% 30.11 in 1.5 mi SE 9.2 mph - N/A   Overcast
9:53 AM 64.0 °F 64.0 °F 100% 30.12 in 1.5 mi SE 10.4 mph - N/A   Overcast
10:17 AM 64.4 °F 64.4 °F 100% 30.12 in 2.0 mi SE 11.5 mph - N/A   Overcast
10:41 AM 64.4 °F 64.4 °F 100% 30.12 in 1.0 mi ESE 11.5 mph - N/A   Overcast
10:53 AM 64.9 °F 64.0 °F 97% 30.12 in 1.0 mi ESE 9.2 mph - N/A   Overcast
11:53 AM 64.0 °F 64.0 °F 100% 30.12 in 1.0 mi ESE 9.2 mph - N/A   Overcast
12:53 PM 64.0 °F 64.0 °F 100% 30.11 in 1.0 mi ESE 8.1 mph - N/A   Overcast
1:53 PM 64.0 °F 64.0 °F 100% 30.10 in 1.0 mi ESE 9.2 mph - N/A   Overcast
2:53 PM 64.0 °F 64.0 °F 100% 30.09 in 1.0 mi East 8.1 mph - N/A   Overcast
3:53 PM 64.0 °F 64.0 °F 100% 30.08 in 1.0 mi ESE 10.4 mph - N/A   Overcast
4:53 PM 64.9 °F 64.0 °F 97% 30.08 in 1.0 mi East 8.1 mph - N/A   Overcast
5:35 PM 64.4 °F 64.4 °F 100% 30.08 in 2.5 mi ESE 10.4 mph - N/A   Overcast
5:53 PM 64.9 °F 64.0 °F 97% 30.08 in 2.5 mi ESE 8.1 mph - N/A   Overcast
6:53 PM 64.9 °F 64.0 °F 97% 30.08 in 2.5 mi East 9.2 mph - N/A   Overcast
7:13 PM 64.4 °F 64.4 °F 100% 30.08 in 2.5 mi ESE 9.2 mph - N/A   Overcast
7:53 PM 64.9 °F 64.9 °F 100% 30.09 in 2.5 mi East 9.2 mph - N/A   Overcast
8:53 PM 64.9 °F 64.9 °F 100% 30.08 in 2.5 mi ESE 6.9 mph - N/A   Overcast
9:53 PM 64.9 °F 64.9 °F 100% 30.07 in 2.5 mi ESE 9.2 mph - N/A   Overcast
10:53 PM 66.0 °F 66.0 °F 100% 30.07 in 2.5 mi SE 8.1 mph - N/A   Overcast
11:41 PM 66.2 °F 66.2 °F 100% 30.06 in 2.5 mi SSE 9.2 mph - N/A   Overcast
11:53 PM 66.9 °F 66.9 °F 100% 30.06 in 2.5 mi SE 6.9 mph - N/A   Overcast